This demonstration page uses our WeatherBlox Daily Observations layout. Learn more.

Left ArrowRight Arrow

38.89511, -77.03637

Hourly Observations for July 4, 2015

Temp ( °F °C ) Dew Point ( °F °C ) Humidity (%) Winds ( mph kmh ) Pressure ( in mb ) Visibility ( mi km ) Precip ( " mm )
12:52 am 00:52 Cloudy 74 23.3 67 19.4 79 79 N N/A 29.93 1013 10 16 N/A
1:52 am 01:52 Cloudy with Light Rain 73 22.8 67 19.4 81 81 ENE 5 7 29.91 1013 10 16 N/A
2:50 am 02:50 Cloudy 73 23 66 19 78 78 N N/A 29.91 1013 10 16 N/A
2:52 am 02:52 Cloudy 74 23.3 67 19.4 79 79 N N/A 29.91 1013 10 16 N/A
3:52 am 03:52 Cloudy 73 22.8 68 20 84 84 NE 5 7 29.89 1012 9 14 N/A
4:52 am 04:52 Cloudy 73 22.8 68 20 84 84 N 3 6 29.88 1012 8 13 N/A
5:52 am 05:52 Cloudy 73 22.8 68 20 84 84 NE 5 7 29.89 1012 8 13 N/A
6:37 am 06:37 Cloudy 73 23 68 20 83 83 NNE 3 6 29.88 1012 7 11 N/A
6:52 am 06:52 Mostly Cloudy 74 23.3 68 20 82 82 NE 3 6 29.89 1012 7 11 N/A
7:52 am 07:52 Cloudy 74 23.3 68 20 82 82 NE 3 6 29.90 1012 7 11 N/A
8:52 am 08:52 Cloudy with Light Rain 75 23.9 68 20 79 79 N N/A 29.91 1013 6 10 N/A
9:43 am 09:43 Cloudy with Light Rain 73 23 70 21 89 89 N 3 6 29.91 1013 3 5 0.02 0.51
9:46 am 09:46 Cloudy with Rain 73 23 70 21 89 89 N 5 7 29.91 1013 2 3 0.03 0.76
9:52 am 09:52 Cloudy with Heavy Rain 73 22.8 69 20.6 87 87 NW 5 7 29.92 1013 2 2 0.08 2.03
9:55 am 09:55 Cloudy with Rain 73 23 70 21 89 89 N N/A 29.91 1013 1 2 0.01 0.25
10:19 am 10:19 Cloudy with Light Rain 73 23 70 21 89 89 N 3 6 29.94 1014 3 5 0.14 3.56
10:32 am 10:32 Cloudy 73 23 68 20 83 83 N N/A 29.91 1013 7 11 N/A
10:38 am 10:38 Cloudy 73 23 68 20 83 83 NNE 3 6 29.91 1013 7 11 N/A
10:45 am 10:45 Cloudy with Light Rain 73 23 68 20 83 83 NE 3 6 29.91 1013 7 11 0.14 3.56
10:52 am 10:52 Cloudy 74 23.3 69 20.6 85 85 N N/A 29.92 1013 7 11 0.14 3.56
11:07 am 11:07 Mostly Cloudy 73 23 70 21 89 89 NNE 3 6 29.91 1013 7 11 N/A
11:52 am 11:52 Cloudy 77 25 69 20.6 77 77 NNE 5 7 29.91 1013 7 11 N/A
11:59 am 11:59 Cloudy 77 25 70 21 79 79 VRB 3 6 29.91 1013 8 13 N/A
12:47 pm 12:47 Cloudy 79 26 70 21 74 74 E 3 6 29.91 1013 10 16 N/A
12:52 pm 12:52 Mostly Cloudy 78 25.6 70 21.1 76 76 ENE 3 6 29.91 1013 10 16 N/A
1:37 pm 13:37 Cloudy 81 27 70 21 70 70 SE 3 6 29.91 1013 10 16 N/A
1:52 pm 13:52 Cloudy 80 26.7 70 21.1 71 71 SE 3 6 29.91 1013 10 16 N/A
2:52 pm 14:52 Cloudy 82 27.8 70 21.1 67 67 S 3 6 29.90 1013 10 16 N/A
3:52 pm 15:52 Cloudy 83 28.3 70 21.1 65 65 N N/A 29.89 1012 10 16 N/A
4:09 pm 16:09 Cloudy with Light Rain 82 28 70 21 66 66 N 7 11 29.91 1013 10 16 N/A
4:20 pm 16:20 Cloudy with Rain 79 26 72 22 79 79 N 12 19 29.91 1013 3 5 N/A
4:23 pm 16:23 Cloudy with Heavy Rain 79 26 72 22 79 79 N 12 19 29.91 1013 2 3 0.01 0.25
4:26 pm 16:26 Cloudy with Heavy Rain 77 25 72 22 83 83 NNE 5 7 29.91 1013 3 5 0.06 1.52
4:29 pm 16:29 Cloudy with Heavy Rain 77 25 72 22 83 83 NNW 9 15 29.91 1013 3 4 0.11 2.79
4:30 pm 16:30 Cloudy with Heavy Rain 77 25 72 22 83 83 NNW 9 15 29.91 1013 1 1 N/A
4:35 pm 16:35 Cloudy with Heavy Rain 75 24 72 22 89 89 N N/A 29.91 1013 1 2 0.28 7.11
4:38 pm 16:38 Cloudy with Heavy Rain 75 24 72 22 89 89 N N/A 29.91 1013 2 3 N/A
4:46 pm 16:46 Cloudy with Thunderstorms 75 24 72 22 89 89 N N/A 29.91 1013 3 4 N/A
4:52 pm 16:52 Cloudy with Strong Thunderstorms 76 24.4 71 21.7 85 85 N 8 13 29.93 1014 3 4 0.44 11.18
4:55 pm 16:55 Cloudy with Thunderstorms 75 24 72 22 89 89 N 9 15 29.91 1013 2 3 0.09 2.29
5:04 pm 17:04 Cloudy with Strong Thunderstorms 73 23 70 21 89 89 N N/A 29.91 1013 2 3 N/A
5:10 pm 17:10 Cloudy with Thunderstorms 73 23 70 21 89 89 NE 5 7 29.91 1013 4 6 0.18 4.57
5:16 pm 17:16 Cloudy with Light Rain 75 24 70 21 83 83 ENE 3 6 29.91 1013 7 11 0.18 4.57
5:30 pm 17:30 Cloudy with Light Rain 75 24 70 21 83 83 N N/A 29.91 1013 7 11 N/A
5:52 pm 17:52 Cloudy 76 24.4 70 21.1 82 82 ESE 3 6 29.92 1013 10 16 0.19 4.83
6:26 pm 18:26 Cloudy 77 25 70 21 79 79 N N/A 29.94 1014 10 16 N/A
6:52 pm 18:52 Cloudy 77 25 70 21.1 79 79 N N/A 29.95 1014 10 16 N/A
7:52 pm 19:52 Mostly Cloudy 77 25 71 21.7 82 82 N N/A 29.96 1015 10 16 N/A
7:58 pm 19:58 Mostly Cloudy 75 24 72 22 89 89 SSE 3 6 29.97 1015 10 16 N/A
8:31 pm 20:31 Mostly Cloudy 77 25 72 22 83 83 N N/A 29.97 1015 9 14 N/A
8:52 pm 20:52 Mostly Cloudy 76 24.4 71 21.7 85 85 N N/A 29.97 1015 7 11 N/A
9:43 pm 21:43 Mostly Cloudy with Haze 75 24 72 22 89 89 ENE 3 6 30.00 1016 5 8 N/A
9:52 pm 21:52 Cloudy with Haze 76 24.4 71 21.7 85 85 NNE 5 7 30.00 1016 3 5 N/A
10:11 pm 22:11 Cloudy with Haze 75 24 72 22 89 89 NE 7 11 30.00 1016 3 4 N/A
10:23 pm 22:23 Mostly Cloudy with Haze 75 24 70 21 83 83 NE 7 11 30.00 1016 3 5 N/A
10:30 pm 22:30 Mostly Cloudy with Haze 75 24 70 21 83 83 NE 6 9 30.00 1016 3 5 N/A
10:49 pm 22:49 Hazy 75 24 70 21 83 83 ENE 6 9 30.03 1017 3 5 N/A
10:52 pm 22:52 Hazy 75 23.9 70 21.1 84 84 ENE 7 11 30.02 1017 3 5 N/A
11:52 pm 23:52 Hazy 74 23.3 69 20.6 85 85 NNE 5 7 30.04 1017 4 6 N/A

Powered by AerisWeather